Flag for Canada Weather past 2 weeks in Prince Albert, Saskatchewan, Canada

Now
54 °F

Passing clouds.


Feels Like: 54 °F
Forecast: 54 / 73 °F
Wind: 2 mph from Northeast

Location: Prince Albert

Current Time: Aug 4, 2015 at 5:51:27 AM

Latest Report: Aug 4, 2015 at 5:00 AM


Visibility: 15 mi

Pressure: 29.99 "Hg

Humidity: 94%

Dew point: 52 °F

Location of Prince AlbertLocation

Historic Weather in Prince Albert — Graph

°F

Prince Albert temperature yesterday

Maximum temperature yesterday: 79 °F (at 1:00 PM)
Minimum temperature yesterday: 45 °F (at 5:00 AM)
Average temperature yesterday: 64 °F

Past Weeks' High & Low Weather Summary

 TemperatureHumidityPressure
High84 °F (Jul 25, 3:00 PM)100% (Jul 21, 4:00 AM)30.12 "Hg (Jul 21, 4:00 AM)
Low45 °F (Aug 3, 5:00 AM)31% (Jul 30, 4:00 PM)29.54 "Hg (Jul 22, 6:00 PM)
Average65 °F75%29.86 "Hg
* Reported Jul 20 4:00 AM — Aug 4 4:00 AM, Prince Albert, Weather by CustomWeather, © 2015

Note: Actual official high and low records may vary slightly from our data, if they occured in-between our weather recording intervals... More about our weather records

Advertising

Prince Albert weather history for previous 24 hours

 ConditionsComfort  
Time TempWeatherWind HumidityBarometerVisibility
4:00 AM
Tue, Aug 4
54 °FPassing clouds.7 mph100%29.97 "Hg15 mi
3:00 AM54 °FPassing clouds.6 mph94%29.98 "Hg15 mi
2:00 AM55 °FPassing clouds.5 mph94%29.98 "Hg15 mi
1:00 AM55 °FPassing clouds.2 mph94%29.98 "Hg15 mi
12:00 AM55 °FPassing clouds.5 mph94%29.97 "Hg15 mi
11:00 PM
Mon, Aug 3
55 °FPassing clouds.3 mph94%29.96 "Hg15 mi
10:00 PM59 °FPassing clouds.3 mph88%29.96 "Hg15 mi
9:00 PM64 °FPassing clouds.No wind83%29.95 "Hg15 mi
8:00 PM72 °FPassing clouds.5 mph65%29.94 "Hg15 mi
7:00 PM75 °FPassing clouds.6 mph54%29.94 "Hg15 mi
6:00 PM77 °FPassing clouds.5 mph47%29.96 "Hg15 mi
5:00 PM79 °FScattered clouds.3 mph42%29.96 "Hg15 mi
4:00 PM79 °FScattered clouds.6 mph42%29.98 "Hg15 mi
3:00 PM79 °FScattered clouds.6 mph39%29.98 "Hg15 mi
2:00 PM79 °FPassing clouds.2 mph34%29.99 "Hg15 mi
1:00 PM79 °FPassing clouds.6 mph37%30.00 "Hg15 mi
12:00 PM77 °FPassing clouds.3 mph44%30.00 "Hg15 mi
11:00 AM75 °FPassing clouds.5 mph44%30.00 "Hg15 mi
10:00 AM72 °FScattered clouds.5 mph57%30.00 "Hg15 mi
9:00 AM66 °FScattered clouds.2 mph73%30.01 "Hg15 mi
8:00 AM61 °FPassing clouds.No wind83%30.01 "Hg15 mi
7:00 AM55 °FPassing clouds.3 mph94%30.01 "Hg15 mi
6:00 AM45 °FSunny.2 mph93%30.01 "Hg15 mi
5:00 AM45 °FClear.No wind100%30.00 "Hg15 mi
Weather by CustomWeather, © 2015

See weather overviewHow to use our weather pages